Location: Kumla
(59.1265°N, 15.1401°E)
Time: 02:15:12
(UTC+01:00)

Vanguard 2 Rocket - Pass Details

Date: 08 December 2023
Orbit: 554 x 3310 km, 32.9° (Epoch: 20 February)

Event Time Altitude Azimuth Distance (km) Brightness Sun altitude
Rises 13:26:01 0° 210° (SSW) 6,125 13.5 5.9°
Reaches altitude 10° 13:31:04 10° 197° (SSW) 5,505 13.6 5.6°
Maximum altitude 13:42:53 23° 154° (SSE) 5,086 11.3 5.0°
Drops below altitude 10° 13:56:07 10° 113° (ESE) 6,248 11.1 4.2°
Sets 14:02:24 0° 101° (E) 7,135 11.3 3.8°
